[[{"header":{"parameterUnit":"m.s-1","parameterCategory":1,"la1":30.2991,"la2":30.254,"lo1":-89.0895,"lo2":-89.0444,"dy":0.0017,"dx":0.0017,"nx":28,"ny":28,"refTime":"2023-10-28T09:00:00:Z","depth":0,"parameterNumber":2,"parameterNumberName":"U-component_of_WINDS"},"data":[0,0,0,0,0,0,0,0,0,0,0,0,0,0,0,0,0,0,0,0,0,0,0,0,0,0,0,0,0,0,0,0,0,0,0,0,0,0,0,0,0,0,0,0,0,0,0,0,0,0,0,0,0,0,0,0,0,0,-1.7603,-1.7604,0,-1.769,-1.7691,-1.7692,-1.7722,-1.7722,-1.7721,-1.7721,-1.7807,-1.781,-1.7812,0,0,0,0,0,0,0,0,0,0,0,0,0,-1.7462,-1.7465,-1.7603,-1.7604,-1.7605,-1.7689,-1.7691,-1.7692,-1.7722,-1.7722,-1.7721,-1.7721,-1.7806,-1.7809,-1.7813,0,0,0,0,0,0,0,0,0,0,0,0,0,-1.7533,-1.7465,-1.7602,-1.763,-1.7634,-1.7689,-1.7691,-1.7692,-1.7722,-1.7722,-1.7721,-1.7721,-1.7805,-1.7809,-1.7813,-1.7847,0,0,-1.7825,-1.7827,0,0,0,0,0,0,0,0,-1.7529,-1.7539,-1.7625,-1.7628,-1.7632,-1.7695,-1.7673,-1.7744,-1.7722,-1.7688,-1.7721,-1.7721,-1.777,-1.7777,-1.7794,-1.7851,-1.7854,-1.7825,-1.7828,-1.7829,-1.783,0,0,0,0,0,0,0,-1.7524,-1.7535,-1.7637,-1.7626,-1.7631,-1.7638,-1.7648,-1.7686,-1.7731,-1.7691,-1.7694,-1.7704,-1.7772,-1.779,-1.7796,-1.7856,-1.7825,-1.7829,-1.7831,-1.7832,-1.7946,-1.7947,0,0,0,0,0,0,-1.7515,-1.7531,-1.7634,-1.764,-1.7579,-1.7641,-1.7652,-1.7675,-1.773,-1.7738,-1.7704,-1.7705,-1.7784,-1.7792,-1.7799,-1.7844,-1.7829,-1.7833,-1.7835,-1.7946,-1.7947,-1.7947,0,0,0,0,0,0,-1.7512,-1.7524,-1.7631,-1.7586,-1.76,-1.7644,-1.767,-1.7677,-1.7695,-1.774,-1.7748,-1.7715,-1.7784,-1.7794,-1.7835,-1.7847,-1.7835,-1.7838,-1.7945,-1.7946,-1.7947,-1.7931,0,0,0,0,0,0,-1.7508,-1.7523,-1.7536,-1.7586,-1.7602,-1.7665,-1.7671,-1.7679,-1.7702,-1.7704,-1.7752,-1.776,-1.7784,-1.7829,-1.7839,-1.7852,-1.7841,-1.7944,-1.7945,-1.7947,-1.7931,-1.7932,-1.7932,0,0,0,0,0,-1.7503,-1.7527,-1.7536,-1.7549,-1.762,-1.7666,-1.7675,-1.7704,-1.7703,-1.7717,-1.7746,-1.7758,-1.7844,-1.7833,-1.7845,-1.7859,-1.7943,-1.7945,-1.7946,-1.793,-1.7931,-1.7932,0,0,0,0,0,0,-1.7475,-1.7534,-1.7545,-1.7586,-1.7621,-1.7671,-1.7689,-1.7703,-1.7738,-1.7738,-1.7771,-1.7782,-1.7821,-1.7844,-1.7831,-1.7895,-1.7895,-1.7898,-1.7879,-1.788,-1.788,-1.7874,-1.7844,0,0,0,0,0,-1.7474,-1.7507,-1.7557,-1.7588,-1.7605,-1.7644,-1.7665,-1.7685,-1.7721,-1.7736,-1.7768,-1.7803,-1.7838,-1.786,-1.7895,-1.7935,-1.7946,-1.795,-1.7951,-1.7951,-1.7954,-1.7978,-1.7981,-1.7952,-1.7952,-1.7952,0,0,-1.7472,-1.7508,-1.7527,-1.7584,-1.7613,-1.7646,-1.7656,-1.769,-1.7716,-1.7741,-1.7782,-1.7807,-1.7849,-1.789,-1.791,-1.791,-1.7965,-1.7953,-1.7953,-1.7956,-1.798,-1.7983,-1.7985,-1.7953,-1.7953,-1.7953,0,0,-1.7485,-1.7516,-1.7546,-1.7576,-1.7621,-1.7647,-1.7654,-1.7703,-1.7721,-1.7764,-1.7784,-1.7814,-1.7874,-1.7903,-1.7925,-1.7953,-1.7965,-1.7963,-1.7966,-1.7989,-1.7992,-1.7994,-1.8004,-1.8008,-1.7966,-1.7966,-1.7966,0,-1.7476,-1.7528,-1.756,-1.7594,-1.7619,-1.7645,-1.7677,-1.7704,-1.7757,-1.7774,-1.7774,-1.7851,-1.7881,-1.793,-1.7937,-1.7954,-1.7964,-1.7957,-1.7989,-1.7991,-1.7994,-1.8004,-1.8008,-1.7965,-1.7965,-1.7965,-1.7965,0,-1.7516,-1.7551,-1.7571,-1.7623,-1.7651,-1.7683,-1.772,-1.7744,-1.7761,-1.7787,-1.7831,-1.7868,-1.7912,-1.7925,-1.7941,-1.7977,-1.7976,-1.7983,-1.7982,-1.7996,-1.8006,-1.801,-1.7964,-1.7965,-1.7965,-1.7965,0,0,-1.7512,-1.7584,-1.759,-1.7616,-1.7668,-1.7696,-1.7731,-1.7774,-1.7795,-1.7831,-1.7861,-1.7912,-1.7919,-1.7945,-1.7965,-1.7986,-1.8007,-1.799,-1.7992,-1.7992,-1.8049,-1.8044,-1.8048,-1.8016,-1.8017,-1.8018,-1.8046,0,-1.7532,-1.7595,-1.7626,-1.7676,-1.771,-1.7736,-1.7767,-1.7802,-1.7828,-1.7861,-1.7889,-1.7925,-1.7931,-1.7947,-1.7969,-1.7999,-1.8019,-1.7998,-1.8044,-1.8045,-1.8033,-1.8053,-1.8048,-1.8072,-1.805,-1.8051,-1.8051,0,-1.7564,-1.7602,-1.7655,-1.7706,-1.7721,-1.7748,-1.7792,-1.7822,-1.7864,-1.7882,-1.7912,-1.7932,-1.797,-1.7968,-1.8021,-1.8006,-1.8027,-1.8045,-1.8047,-1.8052,-1.8049,-1.8059,-1.8081,-1.8085,-1.8058,-1.8057,-1.8057,0,-1.7557,-1.7621,-1.7662,-1.7683,-1.7742,-1.7761,-1.7786,-1.7828,-1.7853,-1.7891,-1.7908,-1.7949,-1.7972,-1.8004,-1.8036,-1.8032,-1.8086,-1.8086,-1.8102,-1.8101,-1.8111,-1.811,-1.8137,-1.8125,-1.8125,-1.8125,-1.8125,0,-1.7576,-1.7608,-1.766,-1.7685,-1.7722,-1.7757,-1.7793,-1.782,-1.7857,-1.7888,-1.7914,-1.7942,-1.7982,-1.8016,-1.8041,-1.8082,-1.8092,-1.8107,-1.8113,-1.8105,-1.8103,-1.8118,-1.8117,-1.8126,-1.8126,-1.8126,-1.8125,0,-1.7574,-1.761,-1.7656,-1.771,-1.7724,-1.7749,-1.7795,-1.782,-1.7849,-1.7888,-1.7899,-1.7943,-1.7985,-1.802,-1.8074,-1.8091,-1.8133,-1.814,-1.8119,-1.8122,-1.8136,-1.8134,-1.8173,-1.8181,-1.8164,-1.8164,-1.8164,0,-1.7583,-1.7609,-1.7666,-1.7689,-1.7715,-1.7751,-1.7778,-1.7814,-1.784,-1.7891,-1.7911,-1.7954,-1.7991,-1.8056,-1.8093,-1.8135,-1.8143,-1.8154,-1.815,-1.8141,-1.8144,-1.8142,-1.8145,-1.8154,-1.8154,-1.8154,-1.8154,0,-1.7597,-1.7614,-1.7652,-1.7696,-1.7727,-1.7763,-1.78,-1.7818,-1.7861,-1.789,-1.7933,-1.7962,-1.8018,-1.8061,-1.8108,-1.8134,-1.8152,-1.8156,-1.8162,-1.8153,-1.814,-1.8147,-1.812,-1.8154,-1.8154,-1.8154,-1.8154,-1.8154,-1.7602,-1.7626,-1.767,-1.7712,-1.7744,-1.7778,-1.7805,-1.7838,-1.7875,-1.7924,-1.7944,-1.7988,-1.8031,-1.8095,-1.8122,-1.8158,-1.816,-1.8168,-1.817,-1.8172,-1.8171,-1.8135,-1.8166,-1.8166,-1.8166,-1.8166,-1.8166,0,-1.7617,-1.7648,-1.7685,-1.7737,-1.777,-1.7785,-1.7827,-1.7853,-1.7892,-1.7931,-1.7967,-1.8018,-1.8061,-1.8102,-1.8146,-1.8167,-1.8176,-1.8178,-1.8176,-1.8182,-1.8166,-1.8156,-1.817,-1.817,-1.817,-1.817,-1.817,-1.817,-1.7629,-1.7671,-1.7694,-1.7753,-1.7784,-1.7828,-1.7851,-1.7883,-1.7915,-1.797,-1.8006,-1.8033,-1.8073,-1.8122,-1.8162,-1.8173,-1.8188,-1.8187,-1.8201,-1.8184,-1.8183,-1.8182,-1.8174,-1.819,-1.819,-1.8214,-1.8214,-1.8215]},{"header":{"parameterUnit":"m.s-1","parameterCategory":1,"la1":30.2991,"la2":30.254,"lo1":-89.0895,"lo2":-89.0444,"dy":0.0017,"dx":0.0017,"nx":28,"ny":28,"refTime":"2023-10-28T09:00:00:Z","depth":0,"parameterNumber":3,"parameterNumberName":"V-component_of_WINDS"},"data":[0,0,0,0,0,0,0,0,0,0,0,0,0,0,0,0,0,0,0,0,0,0,0,0,0,0,0,0,0,0,0,0,0,0,0,0,0,0,0,0,0,0,0,0,0,0,0,0,0,0,0,0,0,0,0,0,0,0,0.4979,0.4979,0,0.498,0.498,0.498,0.4932,0.4931,0.493,0.4929,0.4929,0.493,0.4931,0,0,0,0,0,0,0,0,0,0,0,0,0,0.4937,0.4938,0.4979,0.4979,0.4979,0.498,0.498,0.498,0.4932,0.4931,0.4929,0.4928,0.4929,0.493,0.4932,0,0,0,0,0,0,0,0,0,0,0,0,0,0.4948,0.4938,0.4979,0.4955,0.4953,0.498,0.498,0.498,0.4933,0.4931,0.4929,0.4927,0.4928,0.493,0.4932,0.4981,0,0,0.4937,0.4938,0,0,0,0,0,0,0,0,0.4948,0.495,0.4959,0.4957,0.4955,0.4954,0.4965,0.498,0.4933,0.4941,0.4928,0.4926,0.4939,0.494,0.4944,0.4981,0.4981,0.4937,0.4938,0.4939,0.494,0,0,0,0,0,0,0,0.4947,0.495,0.4979,0.4959,0.4957,0.4945,0.4945,0.4968,0.495,0.494,0.4936,0.4937,0.4937,0.4942,0.4944,0.4981,0.4937,0.4939,0.494,0.4941,0.5059,0.5061,0,0,0,0,0,0,0.4949,0.4949,0.4979,0.4979,0.4947,0.4947,0.4947,0.4956,0.495,0.4947,0.4939,0.4935,0.494,0.4942,0.4943,0.5001,0.4939,0.4941,0.4942,0.5057,0.506,0.5062,0,0,0,0,0,0,0.4949,0.4953,0.4979,0.4963,0.4966,0.495,0.4961,0.4957,0.4962,0.4949,0.4946,0.4947,0.4939,0.4941,0.4972,0.5001,0.4942,0.4943,0.5055,0.5058,0.5061,0.5117,0,0,0,0,0,0,0.4948,0.4953,0.4971,0.4964,0.4967,0.5008,0.4963,0.4959,0.4965,0.496,0.4956,0.4953,0.4937,0.497,0.4974,0.5002,0.4945,0.5052,0.5056,0.506,0.5112,0.5122,0.5129,0,0,0,0,0,0.4946,0.4986,0.4972,0.4975,0.4989,0.5009,0.5011,0.4992,0.4968,0.4986,0.4978,0.4954,0.4997,0.4973,0.4978,0.5007,0.505,0.5055,0.506,0.5109,0.512,0.5129,0,0,0,0,0,0,0.4995,0.4984,0.4969,0.5007,0.501,0.5001,0.5023,0.5004,0.5013,0.5008,0.4984,0.4983,0.5019,0.5016,0.499,0.5055,0.502,0.5025,0.5055,0.5066,0.5074,0.5074,0.4946,0,0,0,0,0,0.501,0.5028,0.5017,0.5052,0.5054,0.5039,0.5047,0.5032,0.5034,0.5035,0.5029,0.5031,0.5046,0.5056,0.5068,0.5112,0.5111,0.5134,0.5143,0.515,0.5155,0.518,0.519,0.5078,0.5078,0.5077,0,0,0.5042,0.5038,0.505,0.5062,0.5062,0.5081,0.504,0.5061,0.5075,0.5038,0.5067,0.5063,0.5065,0.5103,0.512,0.5102,0.5186,0.5156,0.5162,0.5163,0.5186,0.5196,0.5206,0.5081,0.508,0.508,0,0,0.5109,0.5107,0.5137,0.5139,0.514,0.513,0.5137,0.5133,0.5129,0.5158,0.5131,0.5148,0.5172,0.5175,0.5179,0.5251,0.5229,0.5255,0.5299,0.5324,0.5333,0.534,0.5367,0.5376,0.5261,0.5261,0.5261,0,0.5147,0.5175,0.5154,0.5178,0.5185,0.5153,0.5183,0.5186,0.5191,0.5197,0.5177,0.5209,0.5207,0.5246,0.5264,0.5269,0.5277,0.5255,0.5333,0.5341,0.5348,0.5372,0.5382,0.5264,0.5264,0.5263,0.5263,0,0.5223,0.5242,0.5266,0.5273,0.5283,0.5309,0.5294,0.5306,0.5292,0.5284,0.5315,0.5313,0.5325,0.5333,0.5319,0.5371,0.536,0.5337,0.5301,0.5362,0.5385,0.5394,0.5269,0.5268,0.5267,0.5266,0,0,0.5318,0.5316,0.5325,0.5329,0.5329,0.5344,0.537,0.5383,0.5394,0.5399,0.5421,0.5444,0.5424,0.5429,0.5415,0.5436,0.5494,0.541,0.541,0.5427,0.5553,0.5571,0.5582,0.548,0.5482,0.5483,0.5553,0,0.5384,0.5429,0.5413,0.5458,0.5477,0.5449,0.5472,0.5475,0.5469,0.5484,0.5478,0.5495,0.5466,0.5469,0.5489,0.5483,0.5519,0.5478,0.5501,0.5502,0.5501,0.5594,0.5612,0.5678,0.5562,0.5564,0.5565,0,0.5466,0.5476,0.5524,0.5523,0.553,0.5551,0.5563,0.5578,0.5581,0.5576,0.5583,0.5565,0.5591,0.5556,0.5593,0.5565,0.5574,0.5573,0.5575,0.5576,0.5537,0.5598,0.5699,0.5709,0.5578,0.5577,0.5576,0,0.5532,0.5557,0.559,0.5594,0.5593,0.5609,0.561,0.5612,0.5621,0.5631,0.5637,0.565,0.5657,0.5668,0.5654,0.5629,0.5693,0.5656,0.569,0.569,0.5704,0.5703,0.5808,0.571,0.5709,0.5709,0.5709,0,0.5606,0.5637,0.562,0.564,0.5674,0.5656,0.569,0.5688,0.569,0.571,0.5686,0.5704,0.5685,0.5702,0.5692,0.5724,0.5728,0.5724,0.5721,0.5726,0.5727,0.5732,0.5727,0.5712,0.5711,0.5711,0.571,0,0.5685,0.5675,0.5709,0.5706,0.5707,0.5732,0.573,0.5749,0.5742,0.5768,0.5773,0.5762,0.5782,0.5769,0.5788,0.5781,0.5824,0.5815,0.5823,0.5821,0.5855,0.5852,0.5966,0.5981,0.5873,0.5874,0.5875,0,0.5734,0.5757,0.5758,0.577,0.5772,0.5791,0.5801,0.5785,0.5796,0.5804,0.5822,0.584,0.5853,0.5885,0.5879,0.5894,0.5885,0.5924,0.5887,0.5892,0.5886,0.5885,0.5888,0.5931,0.5933,0.5934,0.5935,0,0.5821,0.5815,0.583,0.5845,0.5858,0.5868,0.5876,0.5887,0.5871,0.5886,0.5906,0.5916,0.5937,0.5955,0.5968,0.5969,0.595,0.5947,0.5955,0.5961,0.5965,0.5964,0.5844,0.5944,0.5943,0.5942,0.5942,0.5941,0.5886,0.5906,0.5911,0.5929,0.5934,0.5943,0.5961,0.5958,0.5975,0.5991,0.598,0.6004,0.6009,0.6025,0.6029,0.6048,0.6032,0.6044,0.6047,0.605,0.6056,0.5963,0.605,0.605,0.6049,0.6049,0.6049,0,0.5973,0.5975,0.5992,0.6005,0.6021,0.6002,0.6011,0.6025,0.6047,0.6053,0.6067,0.6091,0.6109,0.6106,0.6122,0.6138,0.613,0.6143,0.6142,0.6143,0.6068,0.606,0.615,0.615,0.615,0.615,0.615,0.615,0.6019,0.6053,0.6048,0.6085,0.6087,0.6111,0.6117,0.6126,0.6131,0.6159,0.6175,0.6173,0.6176,0.6193,0.6209,0.6207,0.6215,0.6231,0.6227,0.6157,0.6147,0.6138,0.613,0.6233,0.6233,0.6299,0.63,0.63]}]]